Regional Weather Roundup
Issued by NWS

Home | Current Version | Previous Version | Text Only | Print | Product List | Glossary On
Versions: 1 2 3 4 5 6 7 8 9 10 11 12 13 14 15 16 17 18 19 20 21 22 23 24 25 26 27 28 29 30 31 32 33 34 35 36 37 38 39 40 41 42 43 44 45 46 47 48 49 50
000
ASUS45 KTFX 010504
RWRMT
MONTANA HOURLY WEATHER ROUNDUP
NATIONAL WEATHER SERVICE GREAT FALLS MT
1004 PM MST SAT FEB 28 2015

NOTE: "FAIR" INDICATES FEW OR NO CLOUDS BELOW 12000 FEET WITH NO
SIGNIFICANT WEATHER AND/OR OBSTRUCTIONS TO VISIBILITY.

* THESE STATIONS ARE NOT UNDER NWS QUALITY CONTROL. THEY DO NOT
   REPORT WEATHER SUCH AS PRECIPITATION OR FOG.

MTZ001>007-043-010600-
WEST OF THE DIVIDE
CITY           SKY/WX    TMP DP  RH WIND       PRES   REMARKS
KALISPELL      CLEAR     19   9  65 CALM      30.20R
MISSOULA       CLEAR     21   9  60 CALM      30.21R
BUTTE          CLEAR      9   3  76 E5        30.12R
MULLAN PASS    CLEAR     16  -4  40 SE6       30.05R WCI   7
* ANACONDA     N/A       10   1  67 SW3        N/A
* ESSEX        N/A       16   5  62 N/A        N/A
* LINCOLN      N/A        9   0  66 NE2        N/A
* LOOKOUT PASS N/A       17   1  49 N/A        N/A
* POLSON       N/A       21  -2  36 N/A        N/A
* RONAN APT    N/A       25  14  63 N/A        N/A
* SEELEY LAKE  N/A        8   0  70 NE1        N/A
* THOMP F APT  N/A       15   3  59 N12G19     N/A   WCI   1
* YAAK HILL    N/A       26   3  37 N/A        N/A
$$

MTZ008-052>055-010600-
SOUTHWEST MONTANA
CITY           SKY/WX    TMP DP  RH WIND       PRES   REMARKS
BOZEMAN        FAIR      12   7  80 NW8       30.17R
DILLON         CLEAR     12   1  61 VRB3      30.10R
* W YELLOWSTON N/A       10   0  64 N2G8       N/A
* THREE FORKS  CLEAR     16   1  51 N/A        N/A
* BOULDER HILL N/A        4  -7  60 N/A        N/A
* MONIDA PASS  N/A       11   4  73 W11        N/A   WCI  -3
* RAYNOLDS PAS N/A        5 -39  10 VRB11      N/A   WCI -10
* WHITEHALL    N/A       16  -7  35 N3G11      N/A
* WISE RIVER   N/A       12   0  58 SE8        N/A
$$

MTZ009>010-012-014-046-048-049-054-010600-
EAST SLOPES AND CENTRAL MONTANA
CITY           SKY/WX    TMP DP  RH WIND       PRES   REMARKS
CUT BANK       FAIR      12   7  80 NW12      30.18R WCI  -2
GREAT FALLS    CLEAR     10   7  88 SW9       30.19R WCI  -3
HELENA         N/A       16   1  51 SW9       30.22R WCI   5
* DEARBORN     N/A       11   4  73 N/A        N/A
* EAST GLACIER N/A       10   2  70 N4         N/A
* MONARCH      N/A        5  -2  72 S6         N/A   WCI  -6
* PENDROY      N/A       12   4  70 NW4        N/A
* ROGERS PASS  N/A        7   1  76 N2         N/A
* SWEET GRASS  N/A       19  14  81 N12G17     N/A   WCI   6
$$

MTZ011-013-016-021-035-040-045-047-050-051-010600-
NORTH CENTRAL MONTANA
CITY           SKY/WX    TMP DP  RH WIND       PRES   REMARKS
HAVRE          MOCLDY    19  12  74 W9        30.19R WCI   8
LEWISTOWN      CLOUDY    16   7  67 NW7       30.14R WCI   6
* N BAR RANCH  MOCLDY    10   0  64 W6        30.12R
* CHESTER      N/A       18  11  74 NW9G14     N/A   WCI   7
* DENTON       N/A       14   4  64 SW12       N/A
* GEYSER       N/A       16   5  62 SW16G21    N/A   WCI   1
* JUDITH GAP   N/A        5   2  87 N3         N/A
* LOMA         N/A       18  11  74 SW3        N/A
$$

MTZ017>020-022>027-061-062-010600-
NORTHEAST MONTANA
CITY           SKY/WX    TMP DP  RH WIND       PRES   REMARKS
GLASGOW        CLOUDY    19  10  68 NW10      30.15R WCI   8
GLENDIVE       MOCLDY    10   3  73 W8        30.16R WCI  -2
JORDAN         PTCLDY    18  10  71 W9        30.17R WCI   7
SIDNEY         MOCLDY    10   3  73 CALM      30.18S
WOLF POINT     MOCLDY    19  10  68 W8        30.17R WCI   9
* BEAVER HILL  N/A       11   3  70 SW9        N/A   WCI  -2
* CIRCLE       N/A       16  10  77 W3         N/A
* LINDSAY DVD  N/A       12   4  70 SW10       N/A   WCI  -1
* NAVAJO       N/A       12   7  80 W10        N/A   WCI  -1
* SACO         N/A       20  13  74 W6         N/A   WCI  12
$$

MTZ028>042-056>058-010600-
SOUTHCENTRAL AND SOUTHEAST MONTANA
CITY           SKY/WX    TMP DP  RH WIND       PRES   REMARKS
BAKER          CLEAR      9   1  70 W8        30.16R WCI  -3
BILLINGS       MOCLDY    18  10  71 NE8       30.16R WCI   8
LIVINGSTON     CLEAR     16   0  49 NW14      30.14R WCI   2
MILES CITY     PTCLDY    10   7  88 W7        30.19R WCI  -1
* LAUREL APT   CLEAR     16   1  51 NW9        N/A   WCI   5
* ROUNDUP APT  CLEAR     16   1  51 N/A        N/A
* ALZADA       N/A       14   9  80 SW3        N/A
* HYSHAM       N/A       15   7  70 W3         N/A
* LAME DEER    N/A       11   6  80 SW3        N/A
* REED POINT   N/A       14   7  73 SE4        N/A
* ROSCOE HILL  N/A       11  -1  58 SW5        N/A   WCI   2
$$

REGIONAL REPORTS...DAKOTAS
CITY           SKY/WX    TMP DP  RH WIND       PRES   REMARKS
WILLISTON      PTCLDY     5   0  80 CALM      30.15S
DICKINSON      CLEAR      7   0  73 W9        30.12R WCI  -6
BEACH          CLEAR      9   3  76 W10       30.14S WCI  -5
CROSBY         LGT SNOW  12   5  73 SW13      30.11S WCI  -3
WATFORD CITY   CLEAR      1  -2  87 N/A       30.13S
BISMARCK       CLEAR      7   1  76 SW7       30.21S WCI  -5
GRAND FORKS    CLEAR      5  -2  72 W9        30.17R WCI  -9
FARGO          CLEAR      7   0  73 W6        30.21S WCI  -4
BUFFALO SD     MOCLDY    12   7  80 W10       30.09R WCI  -1
RAPID CITY     CLOUDY    12   7  80 NW3       30.18R
$$

REGIONAL REPORTS...WYOMING/IDAHO/WASHINGTON
CITY           SKY/WX    TMP DP  RH WIND       PRES   REMARKS
GILLETTE       LGT SNOW  16  10  77 N3        30.12R
SHERIDAN       PTCLDY     9   1  70 S6        30.15R WCI  -1
CODY           PTCLDY    14   7  73 CALM      30.09R
YELLOWSTONE LA PTCLDY     1  -4  79 VRB5      29.96R WCI  -9
SALMON         CLEAR     25  12  58 CALM      30.08R
MULLAN PASS    CLEAR     16  -4  40 SE6       30.05S WCI   7
SAND POINT     CLEAR     25  14  63 CALM      30.20R
SPOKANE        CLEAR     34   3  27 E5        30.16R WCI  29
$$

REGIONAL REPORTS...SASKATCHEWAN
CITY           SKY/WX    TMP DP  RH WIND       PRES   REMARKS
SWIFT CURRENT  LGT SNOW  14  12  92 W10       30.09R WCI   1

$$




USA.gov is the U.S. government's official web portal to all federal, state and local government web resources and services.